Sabadell, Spain

8:20 AM CET en Enero 19, 2018 (GMT +0100)
Sabadell

Tiempo Historia de LELL - Enero, 2018

Change the Weather History Date:

Sábado, Enero 13, 2018

  Actual Average (LEBL) Record (LEBL)
Temperature  
Temperatura media 42 ° F -  
Temperatura máxima 51 ° F 54 ° F 62 ° F (1998)
Temperatura mínima 32 ° F 40 ° F 30 ° F (2003)
Degree Days  
Grados día de calefacción 24    
Moisture  
Punto de rocío 37 ° F    
Average Humidity 84    
Maximum Humidity 100    
Minimum Humidity 62    
Precipitación  
Precipitación 0.00 pul - - ()
Presión al nivel del mar  
Presión al nivel del mar 30.11 pul    
Viento  
Velocidad del viento 1 mph ()    
Velocidad máxima del viento 4 mph    
Max Gust Speed -    
Visibilidad 5.9 Millas    
Eventos Lluvia    
Averages and records for this station are not official NWS values.
T = Trace of Precipitation, MM = Missing Value Source: Averaged Metar Reports

Daily Weather History Graph

Daily Weather History Graph

Search for Another Location

Airport or City:

Trip Planner

Search our weather history database for the weather conditions in past years. The results will help you decide how hot, cold, wet, or windy it might be!

Date:

Astronomía

Jan. 13, 2018 Salida Puesta
Hora real 8:16 AM CET 5:44 PM CET
Crepúsculo civil 7:45 AM CET 6:14 PM CET
Crepúsculo náutico 7:11 AM CET 6:49 PM CET
Crepúsculo astronómico 6:38 AM CET 7:22 PM CET
Luna 5:04 AM CET (1/13) 3:10 PM CET (1/13)
Horas de luz 10h 29m
Horas de luz
9h 27m
Creciente menguante, 11% of the Moon is Illuminated
Ene 13
Creciente menguante
Ene 17
Nueva
Ene 24
Cuarto creciente
Ene 31
Luna llena
Feb 7
Cuarto menguante

Hourly Weather History & Observations

Hora (CET) Temp. Vientos helados Punto de rocío Humedad Presión Visibilidad Wind Dir Velocidad del viento Velocidad de ráfagas Precip Eventos Condiciones
12:00 AM 35.6 ° F - 33.8 ° F 93% 30.21 pul 6.2 mi ONO 2.3 mph - N/A   Desconocido
12:30 AM 33.8 ° F - 32.0 ° F 93% 30.21 pul 6.2 mi Oeste 2.3 mph - N/A   Desconocido
1:00 AM 35.6 ° F - 33.8 ° F 93% 30.21 pul 6.2 mi Variable 2.3 mph - N/A   Desconocido
1:30 AM 33.8 ° F 30.8 ° F 32.0 ° F 93% 30.21 pul 6.2 mi Oeste 3.5 mph - N/A   Desconocido
2:00 AM 33.8 ° F - 32.0 ° F 93% 30.21 pul 6.2 mi Variable 1.2 mph - N/A   Desconocido
2:30 AM 33.8 ° F - 30.2 ° F 87% 30.18 pul 6.2 mi Variable 1.2 mph - N/A   Desconocido
3:00 AM 33.8 ° F - 32.0 ° F 93% 30.18 pul 6.2 mi Sin viento Sin viento - N/A   Desconocido
3:30 AM 33.8 ° F - 32.0 ° F 93% 30.18 pul 6.2 mi Sin viento Sin viento - N/A   Desconocido
4:00 AM 32.0 ° F - 30.2 ° F 93% 30.18 pul 6.2 mi Oeste 1.2 mph - N/A   Desconocido
4:30 AM 32.0 ° F - 32.0 ° F 100% 30.18 pul 6.2 mi Oeste 2.3 mph - N/A   Desconocido
5:00 AM 32.0 ° F - 30.2 ° F 93% 30.18 pul 6.2 mi Variable 1.2 mph - N/A   Desconocido
5:30 AM 32.0 ° F - 32.0 ° F 100% 30.15 pul 6.2 mi ONO 1.2 mph - N/A   Desconocido
6:00 AM 32.0 ° F - 32.0 ° F 100% 30.15 pul 6.2 mi Sin viento Sin viento - N/A   Desconocido
6:30 AM 32.0 ° F - 30.2 ° F 93% 30.15 pul 6.2 mi Variable 1.2 mph - N/A   Desconocido
7:00 AM 32.0 ° F - 30.2 ° F 93% 30.15 pul 6.2 mi NO 1.2 mph - N/A   Desconocido
7:30 AM 32.0 ° F - 30.2 ° F 93% 30.15 pul 6.2 mi Sin viento Sin viento - N/A   Desconocido
8:00 AM 32.0 ° F - 30.2 ° F 93% 30.15 pul - Sin viento Sin viento - N/A   Despejado
8:30 AM 32.0 ° F - 30.2 ° F 93% 30.15 pul - Sin viento Sin viento - N/A   Despejado
9:00 AM 32.0 ° F - 30.2 ° F 93% 30.15 pul - Variable 1.2 mph - N/A   Despejado
9:30 AM 33.8 ° F - 32.0 ° F 93% 30.15 pul - Sin viento Sin viento - N/A   Despejado
10:00 AM 39.2 ° F - 37.4 ° F 93% 30.15 pul - Sin viento Sin viento - N/A   Despejado
10:30 AM 42.8 ° F - 37.4 ° F 81% 30.15 pul - Sin viento Sin viento - N/A   Despejado
11:00 AM 44.6 ° F - 37.4 ° F 76% 30.15 pul 6.2 mi Sin viento Sin viento - N/A   Parcialmente nublado
11:30 AM 46.4 ° F - 37.4 ° F 71% 30.15 pul 6.2 mi Sin viento Sin viento - N/A   Parcialmente nublado
12:00 PM 46.4 ° F - 37.4 ° F 71% 30.15 pul 6.2 mi Sin viento Sin viento - N/A   Parcialmente nublado
12:30 PM 48.2 ° F - 37.4 ° F 66% 30.15 pul 6.2 mi Sin viento Sin viento - N/A   Nubes dispersas
1:00 PM 50.0 ° F - 37.4 ° F 62% 30.12 pul 6.2 mi Sin viento Sin viento - N/A   Nubes dispersas
1:30 PM 50.0 ° F - 39.2 ° F 66% 30.09 pul 6.2 mi Sin viento Sin viento - N/A   Nubes dispersas
2:00 PM 51.8 ° F - 39.2 ° F 62% 30.09 pul 6.2 mi Sin viento Sin viento - N/A   Nubes dispersas
2:30 PM 50.0 ° F - 39.2 ° F 66% 30.09 pul 6.2 mi ESE 2.3 mph - N/A   Muy nublado
3:00 PM 50.0 ° F - 39.2 ° F 66% 30.06 pul 6.2 mi Variable 1.2 mph - N/A   Muy nublado
3:30 PM 51.8 ° F - 39.2 ° F 62% 30.06 pul 6.2 mi Sin viento Sin viento - N/A   Muy nublado
4:00 PM 51.8 ° F - 39.2 ° F 62% 30.06 pul 6.2 mi Sin viento Sin viento - N/A   Muy nublado
4:30 PM 51.8 ° F - 41.0 ° F 67% 30.04 pul 6.2 mi Sin viento Sin viento - N/A   Muy nublado
5:00 PM 51.8 ° F - 41.0 ° F 67% 30.04 pul 6.2 mi ENE 1.2 mph - N/A   Muy nublado
5:30 PM 50.0 ° F - 41.0 ° F 71% 30.04 pul 6.2 mi Variable 1.2 mph - N/A   Muy nublado
6:00 PM 50.0 ° F - 41.0 ° F 71% 30.04 pul 6.2 mi Sin viento Sin viento - N/A   Muy nublado
6:30 PM 50.0 ° F - 41.0 ° F 71% 30.04 pul 6.2 mi Sin viento Sin viento - N/A   Muy nublado
7:00 PM 48.2 ° F - 41.0 ° F 76% 30.04 pul 6.2 mi Sin viento Sin viento - N/A   Muy nublado
7:30 PM 48.2 ° F - 42.8 ° F 82% 30.04 pul 6.2 mi Variable 2.3 mph - N/A   Muy nublado
8:00 PM 48.2 ° F - 44.6 ° F 87% 30.04 pul 4.3 mi Variable 1.2 mph - N/A Lluvia Lluvia débil
8:30 PM 48.2 ° F - 44.6 ° F 87% 30.04 pul 6.2 mi Sin viento Sin viento - N/A   Muy nublado
9:00 PM 46.4 ° F 45.2 ° F 44.6 ° F 93% 30.04 pul 5.0 mi ONO 3.5 mph - N/A   Muy nublado
9:30 PM 46.4 ° F 45.2 ° F 44.6 ° F 93% 30.01 pul 4.3 mi Oeste 3.5 mph - N/A   Nubes dispersas
10:00 PM 46.4 ° F - 44.6 ° F 93% 30.01 pul 3.7 mi Oeste 1.2 mph - N/A   Muy nublado
10:30 PM 46.4 ° F - 44.6 ° F 93% 30.01 pul - Sin viento Sin viento - N/A Lluvia Lluvia
11:00 PM 46.4 ° F - 44.6 ° F 93% 30.01 pul 1.7 mi Variable 1.2 mph - N/A Lluvia Lluvia
11:30 PM 46.4 ° F - 46.4 ° F 100% 29.98 pul - Variable 2.3 mph - N/A   Nublado